Content
SEND FEEDBACK

Daily
Averages
Monthly
Summary
United States of America

GROSSE POINTE, MICHIGAN


Home > North America > United States > Michigan
Elevation: 572 feet     Latitude: 42 22N     Longitude: 082 54W

WEATHER
 
SELECT A DAY
Number of Records: 180,406;   Date Range: 1/1/95 - 7/20/14
 
SHARE

PRINT THIS DATA

[ ← Previous Day ]
WEATHER ALMANAC - FEBRUARY 13, 2013
[ Next Day → ]
[ °C ]   °F
Weather ElementAverageHighLow
Temperature29.5 °F35.6 °F (2:00 pm)26.6 °F (5:00 am)
Dewpoint22 °F26.6 °F (10:00 pm)19 °F (7:00 am)
Humidity72.5 %86 % (7:00 pm)56 % (1:00 pm)
Barometer29.85 in29.94 in (1:00 am)29.77 in (3:00 pm)
Wind Speed5.2 mph9.2 mph (3:00 pm)
Weather ElementAverage
Visibility14.5 mi
Wind DirectionSSW (212.7 °)

Weather ElementTotal
Precipitation---
Heating Degree Days33.9 (Base 65)
Averaged from 27 records on February 13, 2013
WEATHER CONDITIONS BREAKOUT
WIND DIRECTION BREAKOUT
WEATHER BY HOUR - FEBRUARY 13, 2013
[ °C ]   °F
Local TimeTemperatureDewpointHumidityBarometerVisibilityWind DirectionWind SpeedGust SpeedPrecipitationEventsConditions
1:00 AM29.0 °F20.0 °F57 %29.94 in15.0 miWNW (290°)6.9 mphMostly Cloudy
1:00 AM28.4 °F19.4 °F69 %29.94 in15.0 miWNW (290°)6.9 mphMostly Cloudy
2:00 AM28.4 °F19.4 °F69 %29.93 in15.0 miNW (320°)6.9 mphMostly Cloudy
3:00 AM28.4 °F19.4 °F69 %29.92 in15.0 miWNW (290°)6.9 mphMostly Cloudy
4:00 AM28.4 °F19.4 °F69 %29.91 in15.0 miWNW (290°)3.5 mphMostly Cloudy
5:00 AM26.6 °F19.4 °F74 %29.90 in15.0 miWest (280°)4.6 mphMostly Cloudy
6:00 AM26.6 °F19.4 °F74 %29.90 in15.0 miWNW (300°)3.5 mphOvercast
7:00 AM27.0 °F19.0 °F61 %29.89 in12.0 miCalmOvercast
7:00 AM26.6 °F19.4 °F74 %29.89 in12.0 miCalmOvercast
8:00 AM26.6 °F19.4 °F74 %29.87 in10.0 miESE (110°)2.3 mphMostly Cloudy
9:00 AM26.6 °F19.4 °F74 %29.86 in15.0 miSSW (200°)3.5 mphMostly Cloudy
10:00 AM26.6 °F19.4 °F74 %29.85 in12.0 miCalmMostly Cloudy
11:00 AM28.4 °F21.2 °F74 %29.86 in15.0 miSSE (160°)4.6 mphMostly Cloudy
12:00 PM28.4 °F21.2 °F74 %29.85 in15.0 miWest (260°)3.5 mphMostly Cloudy
1:00 PM32.0 °F22.0 °F56 %29.82 in15.0 miSW (230°)2.3 mphScattered Clouds
1:00 PM32.0 °F23.0 °F69 %29.82 in15.0 miWest (260°)3.5 mphScattered Clouds
2:00 PM35.6 °F23.0 °F60 %29.79 in15.0 miWest (260°)2.3 mphPartly Cloudy
3:00 PM35.6 °F24.8 °F65 %29.77 in15.0 miSSW (200°)9.2 mphPartly Cloudy
4:00 PM33.8 °F24.8 °F70 %29.77 in15.0 miSSW (200°)9.2 mphPartly Cloudy
5:00 PM32.0 °F24.8 °F75 %29.77 in15.0 miSouth (180°)6.9 mphScattered Clouds
6:00 PM32.0 °F24.8 °F75 %29.78 in15.0 miSSW (210°)5.8 mphPartly Cloudy
7:00 PM29.0 °F25.0 °F77 %29.79 in15.0 miSouth (180°)5.8 mphClear
7:00 PM28.4 °F24.8 °F86 %29.79 in15.0 miSouth (190°)6.9 mphPartly Cloudy
8:00 PM28.4 °F24.8 °F86 %29.81 in15.0 miSouth (190°)9.2 mphScattered Clouds
9:00 PM30.2 °F24.8 °F80 %29.81 in15.0 miSSW (210°)8.1 mphMostly Cloudy
10:00 PM30.2 °F26.6 °F86 %29.82 in15.0 miSSW (210°)9.2 mphPartly Cloudy
11:00 PM30.2 °F26.6 °F86 %29.82 in15.0 miSW (220°)9.2 mphMostly Cloudy
Hourly data recorded from CYQG, located miles away from Grosse Pointe, Michigan







STORIES FROM OUR PARTNERS